Weather History for Newcastle, WY

Change the Weather History Date:

Monday, August 11, 2014

  Actual Average (KCUT) Record (KCUT)
Temperature  
Mean Temperature 70 °F 65 °F  
Max Temperature 86 °F 79 °F 92 °F (1978)
Min Temperature 55 °F 51 °F 36 °F (2004)
Degree Days  
Heating Degree Days 0 2  
Month to date heating degree days 22  
Since 1 June heating degree days 303  
Since 1 July heating degree days 83  
Cooling Degree Days 6 2  
Month to date cooling degree days 22  
Year to date cooling degree days 129  
Since 1 June cooling degree days 128  
Growing Degree Days 20 (Base 50)    
Moisture  
Dew Point 45 °F    
Average Humidity 40    
Maximum Humidity 63    
Minimum Humidity 22    
Precipitation  
Precipitation 0.00 in 0.07 in 1.38 in (2013)
Month to date precipitation 0.74  
Year to date precipitation 13.51  
Sea Level Pressure  
Sea Level Pressure 30.29 in    
Wind  
Wind Speed 6 mph (SE)    
Max Wind Speed 15 mph    
Max Gust Speed 21 mph    
Visibility 10 miles    
Events      
T = Trace of Precipitation, MM = Missing Value Source: NWS Daily Summary

Daily Weather History Graph

Daily Weather History Graph

Search for Another Location

Airport:

Trip Planner

Search our weather history database for the weather conditions in past years. The results will help you decide how hot, cold, wet, or windy it might be!

Date:

Astronomy

Aug. 11, 2014 Rise Set
Actual Time 5:56 AM MDT 8:07 PM MDT
Civil Twilight 5:25 AM MDT 8:38 PM MDT
Nautical Twilight 4:46 AM MDT 9:17 PM MDT
Astronomical Twilight 4:02 AM MDT 10:00 PM MDT
Moon 8:31 PM MDT (8/11) 7:09 AM MDT (8/11)
Length of Visible Light 15h 13m
Length of Day
14h 10m
Full, 98% of the Moon is Illuminated
Aug 11
Full
Aug 17
Last Quarter
Aug 25
New
Sep 2
First Quarter
Sep 8
Full

Hourly Weather History & Observations

Time (MDT) Temp. Dew Point Humidity Pressure Visibility Wind Dir Wind Speed Gust Speed Precip Events Conditions
12:15 AM 60.8 °F 42.8 °F 52% 30.32 in 10.0 mi East 6.9 mph - N/A   Clear
12:35 AM 62.6 °F 42.8 °F 48% 30.33 in 10.0 mi Calm Calm - N/A   Clear
12:55 AM 60.8 °F 42.8 °F 52% 30.33 in 10.0 mi SE 5.8 mph - N/A   Clear
1:15 AM 60.8 °F 42.8 °F 52% 30.33 in 10.0 mi SE 3.5 mph - N/A   Clear
1:35 AM 59.0 °F 42.8 °F 55% 30.32 in 10.0 mi SSE 4.6 mph - N/A   Scattered Clouds
1:55 AM 59.0 °F 42.8 °F 55% 30.32 in 10.0 mi SE 5.8 mph - N/A   Scattered Clouds
2:15 AM 57.2 °F 42.8 °F 59% 30.32 in 10.0 mi SE 6.9 mph - N/A   Clear
2:35 AM 59.0 °F 42.8 °F 55% 30.32 in 10.0 mi SE 4.6 mph - N/A   Clear
2:55 AM 55.4 °F 42.8 °F 63% 30.33 in 10.0 mi Calm Calm - N/A   Clear
3:15 AM 55.4 °F 42.8 °F 63% 30.33 in 10.0 mi Calm Calm - N/A   Clear
3:35 AM 57.2 °F 42.8 °F 59% 30.32 in 10.0 mi Calm Calm - N/A   Clear
3:55 AM 57.2 °F 42.8 °F 59% 30.32 in 10.0 mi East 4.6 mph - N/A   Clear
4:15 AM 60.8 °F 42.8 °F 52% 30.32 in 10.0 mi East 5.8 mph - N/A   Scattered Clouds
4:35 AM 62.6 °F 42.8 °F 48% 30.32 in 10.0 mi ESE 8.1 mph - N/A   Scattered Clouds
4:55 AM 62.6 °F 42.8 °F 48% 30.32 in 10.0 mi East 6.9 mph - N/A   Scattered Clouds
5:15 AM 62.6 °F 42.8 °F 48% 30.31 in 10.0 mi East 5.8 mph - N/A   Clear
5:35 AM 62.6 °F 42.8 °F 48% 30.31 in 10.0 mi East 9.2 mph - N/A   Scattered Clouds
5:55 AM 62.6 °F 42.8 °F 48% 30.31 in 10.0 mi East 5.8 mph - N/A   Scattered Clouds
6:15 AM 62.6 °F 42.8 °F 48% 30.31 in 10.0 mi ESE 4.6 mph - N/A   Scattered Clouds
6:35 AM 62.6 °F 44.6 °F 52% 30.32 in 10.0 mi ESE 4.6 mph - N/A   Clear
6:55 AM 62.6 °F 44.6 °F 52% 30.32 in 10.0 mi Calm Calm - N/A   Clear
7:15 AM 60.8 °F 44.6 °F 55% 30.32 in 10.0 mi Calm Calm - N/A   Clear
7:35 AM 60.8 °F 44.6 °F 55% 30.32 in 10.0 mi Calm Calm - N/A   Clear
7:55 AM 60.8 °F 44.6 °F 55% 30.32 in 10.0 mi Calm Calm - N/A   Clear
8:15 AM 68.0 °F 46.4 °F 46% 30.32 in 10.0 mi North - - N/A   Clear
8:35 AM 69.8 °F 46.4 °F 43% 30.32 in 10.0 mi North - - N/A   Clear
8:55 AM 71.6 °F 46.4 °F 41% 30.32 in 10.0 mi SE 4.6 mph - N/A   Clear
9:15 AM 71.6 °F 46.4 °F 41% 30.32 in 10.0 mi SSE 6.9 mph - N/A   Clear
9:35 AM 73.4 °F 46.4 °F 38% 30.32 in 10.0 mi SE 4.6 mph - N/A   Clear
9:55 AM 75.2 °F 46.4 °F 36% 30.32 in 10.0 mi SSE 9.2 mph - N/A   Clear
10:15 AM 75.2 °F 46.4 °F 36% 30.32 in 10.0 mi SSE 6.9 mph - N/A   Clear
10:35 AM 75.2 °F 46.4 °F 36% 30.32 in 10.0 mi SSE 8.1 mph - N/A   Clear
10:55 AM 77.0 °F 46.4 °F 34% 30.31 in 10.0 mi North - - N/A   Clear
11:15 AM 77.0 °F 46.4 °F 34% 30.31 in 10.0 mi SE 8.1 mph - N/A   Clear
11:35 AM 78.8 °F 46.4 °F 32% 30.30 in 10.0 mi North - - N/A   Clear
11:55 AM 78.8 °F 46.4 °F 32% 30.30 in 10.0 mi SE 8.1 mph - N/A   Clear
12:15 PM 80.6 °F 46.4 °F 30% 30.30 in 10.0 mi SSE 11.5 mph - N/A   Clear
12:35 PM 80.6 °F 46.4 °F 30% 30.29 in 10.0 mi North - - N/A   Clear
12:55 PM 80.6 °F 46.4 °F 30% 30.29 in 10.0 mi North - - N/A   Clear
1:15 PM 82.4 °F 44.6 °F 26% 30.28 in 10.0 mi SSE 9.2 mph - N/A   Clear
1:35 PM 82.4 °F 44.6 °F 26% 30.28 in 10.0 mi SSW 8.1 mph - N/A   Clear
1:55 PM 82.4 °F 44.6 °F 26% 30.28 in 10.0 mi North - - N/A   Clear
2:15 PM 84.2 °F 44.6 °F 25% 30.27 in 10.0 mi SW 10.4 mph - N/A   Clear
2:35 PM 84.2 °F 44.6 °F 25% 30.26 in 10.0 mi SSW 8.1 mph - N/A   Clear
2:55 PM 84.2 °F 44.6 °F 25% 30.26 in 10.0 mi North - - N/A   Clear
3:15 PM 84.2 °F 42.8 °F 23% 30.25 in 10.0 mi SSW 8.1 mph - N/A   Clear
3:35 PM 86.0 °F 42.8 °F 22% 30.25 in 10.0 mi South 8.1 mph - N/A   Clear
3:55 PM 86.0 °F 44.6 °F 23% 30.25 in 10.0 mi SSW 9.2 mph - N/A   Clear
4:35 PM 86.0 °F 42.8 °F 22% 30.24 in 10.0 mi SSE 9.2 mph - N/A   Clear
4:55 PM 82.4 °F 44.6 °F 26% 30.24 in 10.0 mi SE 12.7 mph - N/A   Clear
5:15 PM 84.2 °F 44.6 °F 25% 30.23 in 10.0 mi SE 15.0 mph - N/A   Clear
5:35 PM 82.4 °F 44.6 °F 26% 30.23 in 10.0 mi North - - N/A   Clear
5:55 PM 80.6 °F 46.4 °F 30% 30.22 in 10.0 mi SE 12.7 mph 20.7 mph N/A   Clear
6:15 PM 80.6 °F 46.4 °F 30% 30.22 in 10.0 mi SE 12.7 mph 16.1 mph N/A   Clear
6:35 PM 80.6 °F 46.4 °F 30% 30.22 in 10.0 mi SE 13.8 mph - N/A   Clear
6:55 PM 80.6 °F 46.4 °F 30% 30.22 in 10.0 mi SE 11.5 mph - N/A   Clear
7:15 PM 78.8 °F 46.4 °F 32% 30.22 in 10.0 mi SE 12.7 mph - N/A   Clear
7:35 PM 77.0 °F 46.4 °F 34% 30.22 in 10.0 mi North - - N/A   Clear
7:55 PM 75.2 °F 46.4 °F 36% 30.22 in 10.0 mi North - - N/A   Clear
8:15 PM 73.4 °F 46.4 °F 38% 30.22 in 10.0 mi North - - N/A   Clear